Watertown, WI

10:35 PM CDT on May 28, 2017 (GMT -0500)
Watertown Municipal

Weather History for KRYV - January, 2014

Change the Weather History Date:

Monday, January 20, 2014

  Actual Average Record
Temperature  
Mean Temperature 18 °F -  
Max Temperature 31 °F 27 °F 48 °F (1968)
Min Temperature 4 °F 9 °F -27 °F (1985)
Degree Days  
Heating Degree Days 47    
Moisture  
Dew Point 12 °F    
Average Humidity 81    
Maximum Humidity 93    
Minimum Humidity 58    
Precipitation  
Precipitation 0.00 in - - ()
Sea Level Pressure  
Sea Level Pressure 29.90 in    
Wind  
Wind Speed 8 mph (NNE)    
Max Wind Speed 18 mph    
Max Gust Speed 26 mph    
Visibility 9 miles    
Events Snow    
Averages and records for this station are not official NWS values.
T = Trace of Precipitation, MM = Missing Value Source: NWS Daily Summary

Daily Weather History Graph

Daily Weather History Graph

Search for Another Location

Airport or City:

Trip Planner

Search our weather history database for the weather conditions in past years. The results will help you decide how hot, cold, wet, or windy it might be!

Date:

Astronomy

Jan. 20, 2014 Rise Set
Actual Time 7:20 AM CST 4:51 PM CST
Civil Twilight 6:49 AM CST 5:22 PM CST
Nautical Twilight 6:14 AM CST 5:57 PM CST
Astronomical Twilight 5:41 AM CST 6:31 PM CST
Moon 9:34 PM CST (1/20) 9:12 AM CST (1/20)
Length of Visible Light 10h 32m
Length of Day
9h 30m
Waning Gibbous, 82% of the Moon is Illuminated
Jan 20
Waning Gibbous
Jan 23
Last Quarter
Jan 30
New
Feb 6
First Quarter
Feb 14
Full

Hourly Weather History & Observations

Time (CST) Temp. Windchill Dew Point Humidity Pressure Visibility Wind Dir Wind Speed Gust Speed Precip Events Conditions
12:15 AM 31.8 °F 22.8 °F 25.0 °F 76% 29.60 in 10.0 mi North 11.5 mph 19.6 mph N/A   Overcast
12:35 AM 30.6 °F 21.8 °F 25.7 °F 82% 29.61 in 10.0 mi NNW 10.4 mph 16.1 mph N/A   Overcast
12:55 AM 29.8 °F 22.2 °F 26.6 °F 88% 29.62 in 10.0 mi NNW 8.1 mph - N/A   Overcast
1:15 AM 29.5 °F 22.5 °F 26.4 °F 88% 29.63 in 10.0 mi NNW 6.9 mph - N/A   Overcast
1:35 AM 29.3 °F 22.3 °F 26.2 °F 88% 29.64 in 10.0 mi NNW 6.9 mph - N/A   Overcast
1:55 AM 29.7 °F 22.8 °F 26.2 °F 87% 29.65 in 10.0 mi NW 6.9 mph - N/A   Overcast
2:15 AM 29.1 °F 21.3 °F 26.4 °F 90% 29.66 in 10.0 mi North 8.1 mph - N/A   Overcast
2:16 AM 28.4 °F 21.2 °F 26.6 °F 93% 29.66 in 10.0 mi North 6.9 mph - N/A   Overcast
2:35 AM 27.9 °F 21.5 °F 25.5 °F 91% 29.69 in 7.0 mi North 5.8 mph - N/A   Overcast
2:55 AM 27.3 °F 20.9 °F 24.8 °F 90% 29.70 in 10.0 mi NNW 5.8 mph - N/A   Overcast
3:15 AM 25.9 °F 18.2 °F 23.5 °F 91% 29.71 in 10.0 mi North 6.9 mph - N/A   Overcast
3:35 AM 23.0 °F 15.8 °F 20.8 °F 91% 29.71 in 10.0 mi North 5.8 mph - N/A   Overcast
3:55 AM 21.7 °F 13.2 °F 19.4 °F 91% 29.72 in 10.0 mi North 6.9 mph - N/A   Overcast
4:15 AM 21.0 °F 13.4 °F 18.7 °F 91% 29.72 in 10.0 mi North 5.8 mph - N/A   Overcast
4:35 AM 20.8 °F 14.4 °F 18.5 °F 91% 29.73 in 10.0 mi NNE 4.6 mph - N/A   Overcast
4:55 AM 20.8 °F 16.0 °F 18.5 °F 91% 29.73 in 10.0 mi NNE 3.5 mph - N/A   Overcast
5:15 AM 20.8 °F 13.2 °F 18.5 °F 91% 29.74 in 10.0 mi NE 5.8 mph - N/A   Overcast
5:35 AM 20.7 °F 13.0 °F 18.3 °F 91% 29.75 in 10.0 mi North 5.8 mph - N/A   Overcast
5:55 AM 20.3 °F 9.8 °F 17.6 °F 89% 29.76 in 10.0 mi North 9.2 mph - N/A   Overcast
6:15 AM 20.1 °F 12.3 °F 17.6 °F 90% 29.74 in 10.0 mi ESE 5.8 mph - N/A   Overcast
6:35 AM 20.7 °F 15.8 °F 18.3 °F 91% 29.76 in 10.0 mi NNE 3.5 mph - N/A   Overcast
6:55 AM 20.3 °F 15.4 °F 17.8 °F 90% 29.77 in 10.0 mi NE 3.5 mph - N/A   Overcast
7:15 AM 20.3 °F - 17.6 °F 89% 29.78 in 10.0 mi Calm Calm - N/A   Overcast
7:35 AM 20.7 °F - 17.6 °F 88% 29.79 in 10.0 mi Calm Calm - N/A   Overcast
7:55 AM 20.7 °F 14.2 °F 18.0 °F 89% 29.79 in 10.0 mi ENE 4.6 mph - N/A   Overcast
8:15 AM 20.7 °F 13.0 °F 18.0 °F 89% 29.81 in 10.0 mi NNE 5.8 mph - N/A   Overcast
8:35 AM 20.8 °F 14.4 °F 18.1 °F 89% 29.82 in 10.0 mi ENE 4.6 mph - N/A   Overcast
8:55 AM 21.0 °F 12.4 °F 18.0 °F 88% 29.82 in 10.0 mi East 6.9 mph - N/A   Overcast
9:15 AM 20.7 °F 10.2 °F 17.6 °F 88% 29.83 in 10.0 mi ENE 9.2 mph - N/A   Overcast
9:35 AM 19.9 °F 8.6 °F 16.5 °F 87% 29.85 in 10.0 mi NE 10.4 mph - N/A   Overcast
9:55 AM 18.7 °F 6.3 °F 14.4 °F 83% 29.86 in 10.0 mi ENE 11.5 mph - N/A Snow Light Snow
10:15 AM 17.6 °F 6.4 °F 13.1 °F 83% 29.87 in 10.0 mi NE 9.2 mph - N/A   Overcast
10:35 AM 17.4 °F 8.0 °F 13.6 °F 85% 29.89 in 10.0 mi ENE 6.9 mph - N/A   Overcast
10:55 AM 17.2 °F 6.0 °F 13.6 °F 86% 29.89 in 10.0 mi NE 9.2 mph - N/A   Overcast
11:15 AM 17.1 °F 6.6 °F 13.1 °F 84% 29.90 in 10.0 mi NNE 8.1 mph - N/A   Overcast
11:35 AM 16.7 °F 6.2 °F 13.1 °F 86% 29.90 in 10.0 mi NE 8.1 mph - N/A   Overcast
11:55 AM 16.7 °F 9.6 °F 12.9 °F 85% 29.89 in 4.0 mi NE 4.6 mph - N/A   Overcast
12:15 PM 16.7 °F 7.2 °F 12.9 °F 85% 29.89 in 10.0 mi ENE 6.9 mph - N/A   Overcast
12:35 PM 16.7 °F 9.6 °F 12.6 °F 84% 29.90 in 10.0 mi NNE 4.6 mph - N/A   Overcast
12:55 PM 17.1 °F 6.6 °F 12.2 °F 81% 29.90 in 10.0 mi NNE 8.1 mph - N/A   Overcast
1:15 PM 16.7 °F 4.5 °F 12.0 °F 82% 29.90 in 10.0 mi NNE 10.4 mph - N/A   Overcast
1:35 PM 16.5 °F 3.6 °F 11.1 °F 79% 29.91 in 10.0 mi North 11.5 mph - N/A   Overcast
1:55 PM 15.8 °F 2.7 °F 10.2 °F 79% 29.92 in 10.0 mi North 11.5 mph - N/A   Overcast
2:15 PM 15.8 °F 4.2 °F 9.9 °F 77% 29.93 in 10.0 mi North 9.2 mph - N/A   Overcast
2:35 PM 15.6 °F 4.0 °F 9.5 °F 77% 29.94 in 10.0 mi North 9.2 mph - N/A   Overcast
2:55 PM 15.1 °F 1.8 °F 9.3 °F 78% 29.95 in 7.0 mi NNE 11.5 mph - N/A   Overcast
3:10 PM 14.7 °F 2.1 °F 9.1 °F 79% 29.96 in 7.0 mi North 10.4 mph - N/A Snow Light Snow
3:35 PM 14.4 °F 2.4 °F 9.1 °F 80% 29.96 in 7.0 mi NNE 9.2 mph - N/A Snow Light Snow
3:55 PM 14.0 °F 3.9 °F 8.6 °F 79% 29.98 in 3.0 mi NNE 6.9 mph - N/A Snow Light Snow
4:15 PM 13.6 °F 1.6 °F 8.1 °F 78% 29.99 in 4.0 mi NNE 9.2 mph - N/A Snow Light Snow
4:35 PM 12.9 °F -0.9 °F 7.0 °F 77% 30.00 in 1.8 mi NNE 11.5 mph 17.3 mph N/A Snow Light Snow
4:55 PM 12.2 °F -1.0 °F 7.7 °F 82% 30.01 in 2.0 mi NNE 10.4 mph - N/A Snow Light Snow
5:15 PM 12.2 °F -1.8 °F 7.2 °F 80% 30.03 in 5.0 mi NNE 11.5 mph - N/A Snow Light Snow
5:35 PM 12.0 °F 0.5 °F 7.0 °F 80% 30.03 in 5.0 mi NNE 8.1 mph - N/A Snow Light Snow
5:55 PM 11.8 °F 1.3 °F 7.7 °F 83% 30.05 in 4.0 mi NNE 6.9 mph - N/A Snow Light Snow
6:15 PM 11.7 °F -0.9 °F 7.7 °F 84% 30.06 in 3.0 mi North 9.2 mph - N/A Snow Light Snow
6:35 PM 11.7 °F 2.3 °F 7.5 °F 83% 30.06 in 5.0 mi NNE 5.8 mph - N/A   Overcast
6:55 PM 11.7 °F 0.0 °F 6.8 °F 81% 30.07 in 7.0 mi North 8.1 mph - N/A   Overcast
7:15 PM 11.7 °F -3.2 °F 5.9 °F 78% 30.08 in 7.0 mi NNE 12.7 mph 17.3 mph N/A   Overcast
7:35 PM 11.3 °F -3.6 °F 5.4 °F 77% 30.08 in 7.0 mi NNE 12.7 mph 17.3 mph N/A   Overcast
7:55 PM 11.1 °F -3.2 °F 4.5 °F 75% 30.09 in 7.0 mi NNE 11.5 mph - N/A   Overcast
8:15 PM 10.9 °F -0.8 °F 4.6 °F 76% 30.09 in 7.0 mi NNE 8.1 mph - N/A   Overcast
8:35 PM 10.8 °F -5.6 °F 2.7 °F 70% 30.10 in 10.0 mi NNE 15.0 mph 21.9 mph N/A   Overcast
8:55 PM 10.2 °F -6.3 °F -0.9 °F 61% 30.11 in 7.0 mi NNE 15.0 mph 23.0 mph N/A   Overcast
9:15 PM 9.1 °F -7.7 °F -1.3 °F 63% 30.12 in 7.0 mi NNE 15.0 mph 23.0 mph N/A   Overcast
9:35 PM 8.6 °F -6.3 °F -2.2 °F 62% 30.13 in 10.0 mi NNE 11.5 mph - N/A   Overcast
9:55 PM 7.9 °F -7.2 °F -4.2 °F 58% 30.14 in 10.0 mi NNE 11.5 mph 24.2 mph N/A   Overcast
10:15 PM 7.5 °F -7.7 °F -4.2 °F 59% 30.15 in 10.0 mi NNE 11.5 mph 19.6 mph N/A   Overcast
10:35 PM 7.2 °F -10.2 °F -4.0 °F 60% 30.16 in 10.0 mi North 15.0 mph - N/A   Overcast
10:55 PM 6.4 °F -9.8 °F -4.0 °F 62% 30.17 in 10.0 mi North 12.7 mph 19.6 mph N/A   Overcast
11:15 PM 5.9 °F -13.5 °F -4.0 °F 64% 30.18 in 10.0 mi North 18.4 mph 26.5 mph N/A   Overcast
11:35 PM 5.4 °F -13.7 °F -4.5 °F 64% 30.18 in 5.0 mi North 17.3 mph 24.2 mph N/A   Haze
11:55 PM 4.8 °F -14.4 °F -5.4 °F 63% 30.18 in 10.0 mi North 17.3 mph 23.0 mph N/A   Mostly Cloudy